Eaton, Ohio, United States (45320)
Lat: 39.74N, Lon: 84.64W
Wx Zone: OHZ060
Local Info
Past Weather Observations for Today

NOTE: This archive is for the closest National Weather Service station to Eaton. Information may differ from the station used for current weather conditions.

Click here for Long-term Archive

Time Weather Temperature Dewpoint Humidity Pressure Winds Precip Visibility
17:44
Overcast
30°F / -1°C 19°F / -7°C 64% 30.3 in
(1026 mb)
NW 13.8 mph
(NW 22 kph)
- 10SM
16:53
Overcast
30°F / -1°C 21°F / -6°C 69% 30.27 in
(1025 mb)
NW 15 mph
(NW 24 kph)
- 10SM
15:53
Overcast
32°F / 0°C 25°F / -4°C 75% 30.27 in
(1025 mb)
W 6.9 mph
(W 11 kph)
0.00 in
(0.00 mm)
9SM
14:53
Overcast
Light Snow
30°F / -1°C 25°F / -4°C 80% 30.24 in
(1024 mb)
W 10.4 mph
(W 17 kph)
0.00 in
(0.00 mm)
4SM
13:53
Overcast
32°F / 0°C 21°F / -6°C 64% 30.24 in
(1024 mb)
W 13.8 mph
(W 22 kph)
- 10SM
12:53
Overcast
32°F / 0°C 21°F / -6°C 64% 30.24 in
(1024 mb)
WNW 9.2 mph
(WNW 15 kph)
- 10SM
12:26
Overcast
32°F / 0°C 21°F / -6°C 64% 30.24 in
(1024 mb)
WNW 9.2 mph
(WNW 15 kph)
- 10SM
12:16
Overcast
32°F / 0°C 21°F / -6°C 64% 30.24 in
(1024 mb)
NW 10.4 mph
(NW 17 kph)
- 10SM
12:09
Overcast
32°F / 0°C 21°F / -6°C 64% 30.24 in
(1024 mb)
NW 9.2 mph
(NW 15 kph)
- 10SM
11:53
Overcast
32°F / 0°C 19°F / -7°C 60% 30.24 in
(1024 mb)
NW 9.2 mph
(NW 15 kph)
- 10SM
11:44
Overcast
32°F / 0°C 19°F / -7°C 60% 30.24 in
(1024 mb)
NW 11.5 mph
(NW 19 kph)
- 10SM
11:34
Overcast
32°F / 0°C 19°F / -7°C 60% 30.24 in
(1024 mb)
NW 11.5 mph
(NW 19 kph)
- 10SM
10:53
Partly Cloudy
30°F / -1°C 19°F / -7°C 64% 30.24 in
(1024 mb)
NW 12.7 mph
(NW 20 kph)
- 10SM
10:01
Partly Cloudy
30°F / -1°C 23°F / -5°C 75% 30.21 in
(1023 mb)
NW 11.5 mph
(NW 19 kph)
- 9SM
09:53
Mostly Cloudy
30°F / -1°C 23°F / -5°C 75% 30.21 in
(1023 mb)
WNW 12.7 mph
(WNW 20 kph)
0.00 in
(0.00 mm)
8SM
09:27
Overcast
Light Snow
30°F / -1°C 25°F / -4°C 80% 30.21 in
(1023 mb)
NW 8.1 mph
(NW 13 kph)
0.00 in
(0.00 mm)
5SM
08:53
Overcast
Hazy
30°F / -1°C 25°F / -4°C 80% 30.21 in
(1023 mb)
NW 10.4 mph
(NW 17 kph)
- 6SM
08:39
Overcast
Hazy
30°F / -1°C 25°F / -4°C 80% 30.21 in
(1023 mb)
NW 9.2 mph
(NW 15 kph)
- 6SM
08:28
Overcast
Hazy
28°F / -2°C 25°F / -4°C 86% 30.18 in
(1022 mb)
NW 10.4 mph
(NW 17 kph)
- 6SM
07:53
Overcast
28°F / -2°C 25°F / -4°C 86% 30.18 in
(1022 mb)
NW 8.1 mph
(NW 13 kph)
- 7SM
07:48
Overcast
28°F / -2°C 25°F / -4°C 86% 30.18 in
(1022 mb)
NW 6.9 mph
(NW 11 kph)
- 7SM
06:53
Overcast
Fog And Mist
28°F / -2°C 25°F / -4°C 86% 30.15 in
(1021 mb)
NW 5.8 mph
(NW 9 kph)
- 6SM
06:30
Overcast
Fog And Mist
28°F / -2°C 25°F / -4°C 86% 30.12 in
(1020 mb)
NW 6.9 mph
(NW 11 kph)
- 6SM
06:16
Mostly Cloudy
Fog And Mist
28°F / -2°C 25°F / -4°C 86% 30.12 in
(1020 mb)
NNW 8.1 mph
(NNW 13 kph)
- 6SM
05:53
Mostly Cloudy
Fog And Mist
27°F / -3°C 25°F / -4°C 93% 30.12 in
(1020 mb)
NNW 4.6 mph
(NNW 7 kph)
- 6SM
05:00
Mostly Cloudy
Fog And Mist
27°F / -3°C 25°F / -4°C 93% 30.09 in
(1019 mb)
NW 5.8 mph
(NW 9 kph)
- 6SM
04:53
Overcast
Fog And Mist
27°F / -3°C 25°F / -4°C 93% 30.09 in
(1019 mb)
NNW 6.9 mph
(NNW 11 kph)
- 6SM
04:19
Overcast
Fog And Mist
28°F / -2°C 25°F / -4°C 86% 30.09 in
(1019 mb)
NNW 8.1 mph
(NNW 13 kph)
- 6SM
04:05
Overcast
Fog And Mist
28°F / -2°C 25°F / -4°C 86% 30.09 in
(1019 mb)
NNW 8.1 mph
(NNW 13 kph)
- 6SM
03:53
Overcast
28°F / -2°C 25°F / -4°C 86% 30.09 in
(1019 mb)
NNW 6.9 mph
(NNW 11 kph)
- 7SM
03:37
Overcast
28°F / -2°C 25°F / -4°C 86% 30.09 in
(1019 mb)
NNW 6.9 mph
(NNW 11 kph)
- 7SM
02:53
Mostly Cloudy
27°F / -3°C 23°F / -5°C 86% 30.06 in
(1018 mb)
NNW 5.8 mph
(NNW 9 kph)
- 8SM
01:53
Partly Cloudy
27°F / -3°C 21°F / -6°C 80% 30.06 in
(1018 mb)
N 5.8 mph
(N 9 kph)
- 8SM
00:53
Mostly Cloudy
27°F / -3°C 23°F / -5°C 86% 30.06 in
(1018 mb)
N 5.8 mph
(N 9 kph)
- 9SM
Time Weather Temperature Dewpoint Humidity Pressure Winds Precip Visibility


Weather for websites

WeatherForYou.com, LLC is not responsible for any damages or problems caused by this service. Current weather conditions are obtained from the closest station including government and personal stations which may have varying degrees of accuracy. Weather forecasts are derived from the NOAA NDFD. Like all things, this site belongs to Jesus Christ... He just trusts me to maintain it. If you have any questions or comments email webmaster@weatherforyou.com

Copyright © 2014, WeatherForYou.com LLC. All rights reserved.